Location: Guadanolo
(41.9167°N, 12.9333°E)
Time: 05:14:00
(UTC+00:00)

ADEOS Rocket - Pass Details

Date: 16 September 2019
Orbit: 859 x 1306 km, 98.7° (Epoch: 15 October)

Event Time Altitude Azimuth Distance (km) Brightness Sun altitude
Rises 18:22:01 0° 20° (NNE) 4,053 6.2 -12.8°
Reaches altitude 10° 18:24:46 10° 28° (NNE) 3,144 5.5 -13.3°
Maximum altitude 18:31:36 41° 97° (E) 1,758 3.9 -14.5°
Drops below altitude 10° 18:38:46 10° 165° (SSE) 3,305 5.4 -15.8°
Sets 18:41:42 0° 172° (S) 4,281 6.1 -16.3°
